Location: Gaast
(52.9002°N, 5.8891°E)
Time: 13:24:45
(UTC+00:00)

ARIANE 5 R/B - Visible Passes

Search period start: 14 February 2026 00:00
Search period end: 24 February 2026 00:00
Orbit: 746 x 793 km, 98.8° (Epoch: 13 February)

Date Brightness Start Highest point End Pass type
(mag) Time Alt. Az. Time Alt. Az. Time Alt. Az.
14 Feb 5.2 05:24:55 10° NE 05:28:48 22° E 05:32:39 10° SE visible
14 Feb 5.0 18:25:45 10° SSW 18:29:52 24° W 18:33:59 10° NW visible
15 Feb 6.0 04:51:04 10° ENE 04:52:41 11° E 04:54:16 10° ESE visible
15 Feb 3.8 17:49:07 10° S 17:53:58 45° W 17:58:50 10° NNW visible
16 Feb 4.3 05:52:18 10° NNE 05:56:54 36° E 06:01:28 10° SSE visible
16 Feb 5.7 18:55:13 10° WSW 18:58:04 15° W 19:00:55 10° NW visible
17 Feb 5.5 05:17:22 10° NE 05:20:55 19° E 05:24:28 10° SE visible
17 Feb 4.8 18:17:42 10° SSW 18:22:02 28° W 18:26:21 10° NW visible
18 Feb 3.5 17:41:14 10° S 17:46:11 52° W 17:51:06 10° NNW visible
19 Feb 4.6 05:44:37 10° NNE 05:49:03 31° E 05:53:28 10° SSE visible
19 Feb 5.5 18:46:53 10° SW 18:50:12 17° W 18:53:29 10° NW visible
20 Feb 5.7 05:09:53 10° NE 05:13:03 17° E 05:16:12 10° SE visible
20 Feb 4.5 18:09:41 10° SSW 18:14:11 32° W 18:18:41 10° NNW visible
21 Feb 3.2 17:33:24 10° S 17:38:23 61° WSW 17:43:22 10° NNW visible
22 Feb 4.9 05:36:58 10° NE 05:41:12 27° E 05:45:25 10° SSE visible
22 Feb 5.4 18:38:40 10° SW 18:42:19 20° W 18:45:58 10° NW visible
23 Feb 5.8 05:02:29 10° NE 05:05:09 14° E 05:07:48 10° ESE visible
23 Feb 4.2 18:01:42 10° SSW 18:06:21 37° W 18:11:00 10° NNW visible
